This is the latest recevied weather packets stored in our database for station/object KG5TTF. If no packets are shown the sender has not sent any weather packets the latest 10 day(s).
| Time | Temp. | Humidity | Pressure | Rain* | Wind** | Luminosity | Snow |
|---|---|---|---|---|---|---|---|
| 1777678465 | 12.78° C | 21% | 1023.6 hPa | 0 mm | - | 287 W/m² | - |
| 1777678160 | 13.33° C | 20% | 1023.6 hPa | 0 mm | - | 308 W/m² | - |
| 1777677858 | 12.78° C | 21% | 1023.6 hPa | 0 mm | - | 321 W/m² | - |
| 1777677555 | 12.78° C | 20% | 1023.6 hPa | 0 mm | - | 339 W/m² | - |
| 1777677253 | 12.78° C | 22% | 1023.5 hPa | 0 mm | - | 356 W/m² | - |
| 1777676951 | 12.78° C | 21% | 1023.6 hPa | 0 mm | - | 369 W/m² | - |
| 1777676650 | 12.78° C | 21% | 1023.5 hPa | 0 mm | - | 398 W/m² | - |
| 1777676347 | 13.33° C | 22% | 1023.6 hPa | 0 mm | - | 414 W/m² | - |
| 1777676044 | 12.78° C | 21% | 1023.5 hPa | 0 mm | - | 433 W/m² | - |
| 1777675740 | 13.33° C | 22% | 1023.5 hPa | 0 mm | - | 459 W/m² | - |
| 1777675438 | 13.33° C | 22% | 1023.7 hPa | 0 mm | - | 477 W/m² | - |
| 1777675134 | 12.78° C | 24% | 1023.5 hPa | 0 mm | - | 500 W/m² | - |
| 1777674830 | 11.67° C | 27% | 1023.5 hPa | 0 mm | - | 200 W/m² | - |
| 1777674527 | 11.67° C | 26% | 1023.5 hPa | 0 mm | - | 93 W/m² | - |
| 1777674225 | 12.22° C | 25% | 1023.5 hPa | 0 mm | - | 486 W/m² | - |
| 1777673921 | 12.22° C | 26% | 1023.6 hPa | 0 mm | - | 140 W/m² | - |
| 1777673618 | 11.67° C | 28% | 1023.5 hPa | 0 mm | - | 614 W/m² | - |
| 1777673316 | 11.11° C | 28% | 1023.6 hPa | 0 mm | - | 588 W/m² | - |
| 1777673013 | 12.22° C | 26% | 1023.7 hPa | 0 mm | - | 132 W/m² | - |
| 1777672704 | 12.22° C | 25% | 1023.7 hPa | 0 mm | - | 154 W/m² | - |
| 1777672400 | 13.33° C | 27% | 1023.5 hPa | 0 mm | - | 697 W/m² | - |
| 1777672096 | 13.33° C | 26% | 1023.6 hPa | 0 mm | - | 708 W/m² | - |
| 1777671791 | 12.78° C | 27% | 1023.7 hPa | 0 mm | - | 715 W/m² | - |
| 1777671488 | 12.78° C | 27% | 1023.8 hPa | 0 mm | - | 723 W/m² | - |
| 1777671184 | 12.78° C | 28% | 1023.7 hPa | 0 mm | - | 741 W/m² | - |
* Rain latest hour (hover to see other rain measurements)
** Current wind speed in m/s (hover to see current wind gust speed)